N3SW-13 Weather Reports


time (UTC)temp
C
wind
direction
speed
KPH
gust
KPH
rain 1hr
cm
rain 24hr
cm
rain mn
cm
humidity
%
barometer
mb
20260505070051 16 323 0.0 0.0 0.00 0.00 0.00 51 1012.2
20260505064541 16 323 0.0 0.0 0.00 0.00 0.00 51 1012.1
20260505063043 16 323 1.6 8.0 0.00 0.00 0.00 51 1012.1
20260505061541 16 323 0.0 0.0 0.00 0.00 0.00 50 1012.1
20260505060037 16 323 0.0 3.2 0.00 0.00 0.00 49 1012.2
20260505054539 16 323 0.0 3.2 0.00 0.00 0.00 49 1012.3
20260505053035 16 323 0.0 0.0 0.00 0.00 0.00 48 1012.2
20260505051532 17 323 0.0 0.0 0.00 0.00 0.00 49 1012.3
20260505041537 17 323 0.0 0.0 0.00 0.00 0.00 48 1012.2
20260505040033 18 323 0.0 0.0 0.00 0.00 0.00 47 1012.2
20260505034524 18 323 0.0 8.0 0.00 0.00 0.00 49 1012.3
20260505033022 18 323 0.0 8.0 0.00 0.00 0.00 48 1012.3
20260505031533 18 325 0.0 11.3 0.00 0.00 0.00 48 1012.3
20260505030021 18 311 0.0 17.7 0.00 0.00 0.00 49 1012.2
20260505024520 18 319 0.0 6.4 0.00 0.00 0.00 50 1012.3
20260505023019 18 321 0.0 6.4 0.00 0.00 0.00 51 1012.4
20260505021517 18 321 0.0 9.7 0.00 0.00 0.00 52 1012.3
20260505020018 18 322 0.0 6.4 0.00 0.00 0.00 53 1012.3
20260505014517 18 322 0.0 6.4 0.00 0.00 0.00 54 1012.4
20260505013017 18 322 0.0 0.0 0.00 0.00 0.00 54 1012.3
20260505011517 18 322 0.0 1.6 0.00 0.00 0.00 54 1012.2
20260505010022 18 322 0.0 0.0 0.00 0.00 0.00 54 1012.0
20260505004516 19 322 0.0 1.6 0.00 0.00 0.00 54 1011.7
20260505003015 19 322 0.0 3.2 0.00 0.00 0.00 54 1011.4
20260505001515 20 322 0.0 4.8 0.00 0.00 0.00 54 1011.5
20260505000014 20 322 0.0 0.0 0.00 0.00 0.00 51 1011.4
20260504234514 21 322 0.0 0.0 0.00 0.00 0.00 48 1011.4
20260504233013 22 322 0.0 14.5 0.00 0.00 0.00 43 1011.3
20260504231512 22 286 0.0 8.0 0.00 0.00 0.00 42 1011.2
20260504230012 23 262 0.0 12.9 0.00 0.00 0.00 41 1011.2
20260504224514 23 228 0.0 12.9 0.00 0.00 0.00 39 1011.4
20260504223015 23 284 1.6 6.4 0.00 0.00 0.00 40 1011.3
20260504221507 24 289 0.0 4.8 0.00 0.00 0.00 39 1011.4
20260504220013 24 224 1.6 8.0 0.00 0.00 0.00 38 1011.6
20260504214505 24 305 1.6 9.7 0.00 0.00 0.00 38 1011.7
20260504213003 23 292 1.6 8.0 0.00 0.00 0.00 42 1011.8
20260504211600 23 277 1.6 11.3 0.00 0.00 0.00 44 1011.6
20260504210058 22 298 0.0 9.7 0.00 0.00 0.00 44 1011.7
20260504204555 22 219 0.0 3.2 0.00 0.00 0.00 49 1011.7
20260504203106 22 214 0.0 0.0 0.00 0.00 0.00 49 1011.5
20260504201554 22 214 0.0 3.2 0.00 0.00 0.00 49 1012.0
20260504200048 22 214 0.0 6.4 0.00 0.00 0.00 47 1012.2
20260504194545 21 286 0.0 1.6 0.00 0.00 0.00 49 1012.3
20260504193043 21 286 0.0 4.8 0.00 0.00 0.00 47 1012.4
20260504191539 21 286 0.0 4.8 0.00 0.00 0.00 48 1012.6
20260504190044 20 286 0.0 3.2 0.00 0.00 0.00 50 1012.7
20260504184536 20 286 0.0 4.8 0.00 0.00 0.00 51 1012.8
20260504183034 20 286 0.0 1.6 0.00 0.00 0.00 48 1013.3
20260504181541 20 286 0.0 4.8 0.00 0.00 0.00 49 1013.7
20260504180031 20 287 0.0 3.2 0.00 0.00 0.00 46 1013.8
20260504174531 21 287 0.0 9.7 0.00 0.00 0.00 44 1013.9
20260504173029 21 281 0.0 8.0 0.00 0.00 0.00 44 1013.9
20260504171526 20 228 1.6 9.7 0.00 0.00 0.00 46 1013.9
20260504150113 17 232 1.6 6.4 0.00 0.00 0.00 49 1015.6
20260504081512 11 286 0.0 0.0 0.00 0.00 0.00 51 1015.9